星链-4012 (STARLINK-4012 )

导读

STARLINK-4012是美国SpaceX公司星链(Starlink)星座的成员卫星,于2022年5月14日发射升空,作为星链互联网星座的组网卫星,它旨在为全球各个地区,尤其是偏远覆盖不足区域提供高速卫星互联网接入服务,延续了星链卫星批量部署、低轨运行的特点,助力SpaceX完成全球卫星互联网组网布局。

Basic Information
目录编号:
52602
目录名称:
STARLINK-4012
国际标识:
2022-052E
轨道中心:
EARTH
卫星名称:
星链-4012
卫星全名:
星链-4012 (STARLINK-4012 )
卫星状态:
在轨 (已飞行1574 天)
发射日期:
2022-05-14 UTC
国别 :
美国 (US)
星等 :
--
Orbit Information
数据来源 国际轨道数据
星历时间: 2026-09-04T03:35:44+0800
9小时前
查看轨道信息
半长轴: 6837.825km
偏心率: 0.000144
轨道倾角: 53.160°
近地点辐角 84.465°
升交点赤经 193.669°
平近点角 275.652°
近地点: 458.703km
远地点: 460.673km
周期: 93.786分钟
每日圈数: 15.354152
Detailed Information
固有亮度:
5
最大亮度:
2.5
卫星平台:
Starlink v1.5
覆盖范围:
全球
运营商:
太空探索技术公司
运营商所在国:
美国
制造商(研发单位):
太空探索技术公司
制造商所在国:
美国
使用方式:
暂无
Satellite Introduction
星链(Starlink)计划是由太空探索技术公司(SpaceX)提出的一个巨型低轨卫星互联网星座项目,计划在2019年至2024年间在太空搭建由约1.2万颗卫星组成的“星链”网络,其中1584颗将部署在地球上空550千米处的近地轨道,并从2020年开始工作。该卫星仍在工作。
2D Orbit Map
3D Orbit Map
Orbit Altitude Analysis Chart
Orbit Inclination Analysis Chart
Orbit Comprehensive Analysis Chart
View Comprehensive Chart
Conjunction Data List
Event ID Objects TCA Miss Dist (km) Collision Risk Probability Collision Risk Index (CRI) Action
CDM_260905-170405-260205-269821
2026-09-05T
17:04:10+0000
2.087 km
极远距离
2.139203E-6 低风险 0.42
CDM_260904-120205-260205-350221
2026-09-04T
12:02:37+0000
2.462 km
极远距离
1.803058E-6 低风险 0.4
CDM_260903-161703-537805-260221
CZ-4 DEB (35378)
2026-09-03T
16:17:11+0000
2.690 km
极远距离
1.535224E-6 低风险 0.39
CDM_260904-141105-260205-802821
2026-09-04T
14:11:39+0000
2.471 km
极远距离
1.529732E-6 低风险 0.39
CDM_260903-171405-260205-347522
2026-09-03T
17:14:47+0000
2.753 km
极远距离
1.499131E-6 低风险 0.39
CDM_260903-202305-260206-286921
2026-09-03T
20:23:50+0000
2.762 km
极远距离
1.336105E-6 低风险 0.38
CDM_260904-044705-260205-356521
2026-09-04T
04:47:57+0000
2.879 km
极远距离
1.18825E-6 低风险 0.36